Location: Gälforsberget
(66.6500°N, 22.4167°E)
Time: 06:16:26
(UTC+00:00)

RESURS DK-1 - Pass Details

Date: 11 April 2026
Orbit: 524 x 530 km, 69.9° (Epoch: 10 May)

Event Time Altitude Azimuth Distance (km) Brightness Sun altitude
Exits shadow 20:55:27 21° 143° (SE) 1,239 3.5 -12.8°
Maximum altitude 20:56:30 23° 119° (ESE) 1,154 3.5 -12.8°
Drops below altitude 10° 20:59:40 10° 67° (ENE) 1,782 4.9 -13.0°
Sets 21:02:09 0° 53° (NE) 2,677 6.0 -13.1°
